Fort Stewart, GA

6:03 AM EST on February 21, 2017 (GMT -0500)
Wright Army Air Field

Weather History for KLHW - November, 2012

Change the Weather History Date:

Wednesday, November 7, 2012

  Actual Average Record
Temperature  
Mean Temperature 47 °F -  
Max Temperature 56 °F 72 °F 85 °F (1986)
Min Temperature 38 °F 47 °F 32 °F (1967)
Degree Days  
Heating Degree Days 18    
Moisture  
Dew Point 40 °F    
Average Humidity 78    
Maximum Humidity 97    
Minimum Humidity 51    
Precipitation  
Precipitation 0.00 in - - ()
Sea Level Pressure  
Sea Level Pressure 29.94 in    
Wind  
Wind Speed 2 mph (NNW)    
Max Wind Speed 10 mph    
Max Gust Speed -    
Visibility 10 miles    
Events Rain    
Averages and records for this station are not official NWS values.
T = Trace of Precipitation, MM = Missing Value Source: NWS Daily Summary

Daily Weather History Graph

Daily Weather History Graph

Search for Another Location

Airport or City:

Trip Planner

Search our weather history database for the weather conditions in past years. The results will help you decide how hot, cold, wet, or windy it might be!

Date:

Astronomy

Nov. 07, 2012 Rise Set
Actual Time 6:48 AM EST 5:31 PM EST
Civil Twilight 6:22 AM EST 5:56 PM EST
Nautical Twilight 5:53 AM EST 6:25 PM EST
Astronomical Twilight 5:24 AM EST 6:54 PM EST
Moon 12:05 AM EST (11/7) 1:17 PM EST (11/7)
Length of Visible Light 11h 34m
Length of Day
10h 43m
Last Quarter, 43% of the Moon is Illuminated
Nov 7
Last Quarter
Nov 13
New
Nov 20
First Quarter
Nov 28
Full
Dec 6
Last Quarter

Hourly Weather History & Observations

Time (EST) Temp. Windchill Dew Point Humidity Pressure Visibility Wind Dir Wind Speed Gust Speed Precip Events Conditions
12:55 AM 40.6 °F - 37.9 °F 90% 29.93 in 10.0 mi Calm Calm - N/A   Partly Cloudy
1:55 AM 41.7 °F 39.8 °F 38.5 °F 88% 29.93 in 10.0 mi NNW 3.5 mph - N/A   Overcast
2:55 AM 41.5 °F 37.8 °F 37.6 °F 86% 29.91 in 10.0 mi North 5.8 mph - N/A   Mostly Cloudy
3:55 AM 40.1 °F - 37.2 °F 89% 29.91 in 10.0 mi Calm Calm - N/A   Mostly Cloudy
4:55 AM 38.7 °F - 36.9 °F 93% 29.92 in 10.0 mi Calm Calm - N/A   Mostly Cloudy
5:55 AM 39.7 °F - 37.4 °F 91% 29.93 in 10.0 mi Calm Calm - N/A   Overcast
6:55 AM 40.6 °F - 37.0 °F 87% 29.94 in 10.0 mi Calm Calm - N/A   Overcast
7:55 AM 42.3 °F - 37.2 °F 82% 29.95 in 10.0 mi Calm Calm - N/A   Overcast
8:55 AM 45.1 °F 41.4 °F 37.0 °F 73% 29.96 in 10.0 mi NNW 6.9 mph - N/A   Overcast
9:55 AM 48.2 °F - 36.9 °F 65% 29.97 in 10.0 mi WNW 8.1 mph - N/A   Overcast
10:55 AM 50.4 °F - 36.7 °F 59% 29.96 in 10.0 mi NNW 3.5 mph - N/A   Overcast
11:55 AM 52.9 °F - 37.0 °F 55% 29.94 in 10.0 mi NNW 9.2 mph - N/A   Overcast
12:55 PM 56.5 °F - 38.5 °F 51% 29.91 in 10.0 mi North 10.4 mph - N/A   Clear
1:55 PM 55.4 °F - 39.7 °F 56% 29.89 in 10.0 mi North 8.1 mph - N/A   Overcast
2:55 PM 55.8 °F - 40.5 °F 56% 29.89 in 10.0 mi NNW 5.8 mph - N/A   Overcast
3:55 PM 56.1 °F - 39.9 °F 55% 29.88 in 10.0 mi North 6.9 mph - N/A   Overcast
4:55 PM 54.0 °F - 41.4 °F 62% 29.90 in 10.0 mi Calm Calm - N/A   Clear
5:55 PM 47.5 °F - 43.7 °F 87% 29.92 in 10.0 mi Calm Calm - N/A   Mostly Cloudy
6:51 PM 50.0 °F - 44.6 °F 82% 29.95 in 10.0 mi Calm Calm - N/A   Light Drizzle
6:55 PM 49.3 °F - 44.2 °F 83% 29.95 in 10.0 mi Calm Calm - 0.00 in Rain Light Rain
7:01 PM 50.0 °F - 42.8 °F 76% 29.95 in 10.0 mi Calm Calm - N/A   Overcast
7:55 PM 48.7 °F - 44.6 °F 86% 29.96 in 10.0 mi Calm Calm - 0.00 in   Overcast
8:55 PM 47.8 °F - 44.6 °F 89% 29.99 in 10.0 mi Calm Calm - N/A   Overcast
9:55 PM 46.8 °F - 44.4 °F 92% 30.00 in 10.0 mi Calm Calm - N/A   Overcast
10:55 PM 45.1 °F - 43.0 °F 92% 30.00 in 10.0 mi Calm Calm - N/A   Overcast
11:55 PM 41.9 °F - 41.2 °F 97% 30.00 in 10.0 mi Calm Calm - N/A   Clear